• In Uzbekistan
  • List of Countries
  • For 7 days
  • Water Temperature
  • Satellite Maps
  • Weather Map
  • Weather Widgets
  • user-avatar
    Login

    Hourly Weather Yahyalı

    Today, 12 December, Tuesday

    Time Temperature Precipitation Wind Pressure Humidity
    00:00 +2°C° 0 mm 1 mps 632 mmHg 59%
    01:00 +2°C° 0 mm 1 mps 632 mmHg 57%
    02:00 +2°C° 0 mm 1 mps 632 mmHg 54%
    03:00 +3°C° 0 mm 1 mps 632 mmHg 51%
    04:00 +3°C° 0 mm 1 mps 632 mmHg 48%
    05:00 +3°C° 0 mm 1 mps 632 mmHg 45%
    06:00 +4°C° 0 mm 1 mps 633 mmHg 42%
    07:00 +4°C° 0 mm 1 mps 633 mmHg 39%
    08:00 +6°C° 0 mm 1 mps 634 mmHg 39%
    09:00 +8°C° 0 mm 1 mps 634 mmHg 37%
    10:00 +9°C° 0 mm 1 mps 634 mmHg 35%
    11:00 +11°C° 0 mm 1 mps 635 mmHg 33%
    12:00 +12°C° 0 mm 1 mps 635 mmHg 34%
    13:00 +12°C° 0 mm 1 mps 634 mmHg 35%
    14:00 +12°C° 0 mm 1 mps 634 mmHg 36%
    15:00 +10°C° 0 mm 1 mps 633 mmHg 41%
    16:00 +7°C° 0 mm 1 mps 632 mmHg 47%
    17:00 +5°C° 0 mm 1 mps 631 mmHg 53%
    18:00 +5°C° 0 mm 1 mps 631 mmHg 53%
    19:00 +5°C° 0 mm 1 mps 631 mmHg 53%
    20:00 +4°C° 0 mm 1 mps 630 mmHg 54%
    21:00 +4°C° 0 mm 1 mps 630 mmHg 53%
    22:00 +4°C° 0 mm 1 mps 630 mmHg 52%
    23:00 +4°C° 0 mm 1 mps 630 mmHg 51%

    Tomorrow, 13 December, Wednesday

    Time Temperature Precipitation Wind Pressure Humidity
    00:00 +4°C° 0 mm 1 mps 630 mmHg 50%
    01:00 +4°C° 0 mm 1 mps 629 mmHg 50%
    02:00 +4°C° 0 mm 1 mps 629 mmHg 50%
    03:00 +3°C° 0 mm 1 mps 629 mmHg 50%
    04:00 +3°C° 0 mm 1 mps 629 mmHg 51%
    05:00 +3°C° 0 mm 1 mps 628 mmHg 51%
    06:00 +4°C° 0 mm 1 mps 629 mmHg 48%
    07:00 +3°C° 0 mm 0 mps 629 mmHg 46%
    08:00 +4°C° 0 mm 0 mps 629 mmHg 43%
    09:00 +7°C° 0 mm 1 mps 630 mmHg 38%
    10:00 +9°C° 0 mm 1 mps 631 mmHg 34%
    11:00 +11°C° 0 mm 1 mps 631 mmHg 29%
    12:00 +11°C° 0 mm 1 mps 631 mmHg 31%
    13:00 +11°C° 0 mm 1 mps 631 mmHg 32%
    14:00 +10°C° 0 mm 2 mps 630 mmHg 33%
    15:00 +8°C° 0 mm 2 mps 630 mmHg 38%
    16:00 +6°C° 0 mm 2 mps 629 mmHg 43%
    17:00 +5°C° 0 mm 1 mps 628 mmHg 48%
    18:00 +4°C° 0 mm 1 mps 628 mmHg 49%
    19:00 +4°C° 0 mm 1 mps 628 mmHg 50%
    20:00 +3°C° 0 mm 1 mps 628 mmHg 51%
    21:00 +3°C° 0 mm 1 mps 628 mmHg 51%
    22:00 +3°C° 0 mm 1 mps 628 mmHg 51%
    23:00 +3°C° 0 mm 1 mps 628 mmHg 51%

    Day after tomorrow, 14 December, Thursday

    Time Temperature Precipitation Wind Pressure Humidity
    00:00 +2°C° 0 mm 1 mps 628 mmHg 51%
    01:00 +2°C° 0 mm 1 mps 628 mmHg 51%
    02:00 +2°C° 0 mm 1 mps 628 mmHg 51%
    03:00 +2°C° 0 mm 1 mps 627 mmHg 51%
    04:00 +2°C° 0 mm 1 mps 627 mmHg 52%
    05:00 +2°C° 0 mm 1 mps 627 mmHg 52%
    06:00 +3°C° 0 mm 1 mps 627 mmHg 50%
    07:00 +3°C° 0 mm 1 mps 628 mmHg 49%
    08:00 +4°C° 0 mm 1 mps 628 mmHg 47%
    09:00 +6°C° 0 mm 1 mps 629 mmHg 42%
    10:00 +7°C° 0 mm 2 mps 629 mmHg 37%
    11:00 +9°C° 0 mm 2 mps 629 mmHg 31%
    12:00 +9°C° 0 mm 2 mps 629 mmHg 32%
    13:00 +9°C° 0 mm 2 mps 629 mmHg 34%
    14:00 +9°C° 0 mm 2 mps 628 mmHg 35%
    15:00 +7°C° 0 mm 2 mps 628 mmHg 41%
    16:00 +6°C° 0 mm 2 mps 627 mmHg 47%
    17:00 +4°C° 0 mm 2 mps 626 mmHg 54%
    18:00 +3°C° 0 mm 2 mps 626 mmHg 56%
    19:00 +3°C° 0 mm 2 mps 626 mmHg 59%
    20:00 +3°C° 0 mm 2 mps 626 mmHg 62%
    21:00 +3°C° 0 mm 1 mps 626 mmHg 65%
    22:00 +3°C° 0 mm 1 mps 626 mmHg 68%
    23:00 +3°C° 0 mm 1 mps 626 mmHg 72%

    15 December, Friday

    Time Temperature Precipitation Wind Pressure Humidity
    00:00 +2°C° 0 mm 1 mps 626 mmHg 74%
    01:00 +2°C° 0 mm 1 mps 626 mmHg 77%
    02:00 +2°C° 0 mm 1 mps 626 mmHg 80%
    03:00 +1°C° 0 mm 1 mps 626 mmHg 79%
    04:00 +1°C° 0 mm 1 mps 626 mmHg 78%
    05:00 +1°C° 0 mm 1 mps 626 mmHg 77%
    06:00 +2°C° 0 mm 1 mps 627 mmHg 71%
    07:00 +3°C° 0 mm 1 mps 627 mmHg 66%
    08:00 +3°C° 0 mm 1 mps 628 mmHg 60%
    09:00 +5°C° 0 mm 1 mps 629 mmHg 53%
    10:00 +6°C° 0 mm 0 mps 629 mmHg 46%
    11:00 +7°C° 0 mm 0 mps 630 mmHg 39%
    12:00 +7°C° 0 mm 0 mps 630 mmHg 38%
    13:00 +8°C° 0 mm 0 mps 630 mmHg 37%
    14:00 +8°C° 0 mm 0 mps 630 mmHg 37%
    15:00 +6°C° 0 mm 0 mps 629 mmHg 44%
    16:00 +4°C° 0 mm 0 mps 628 mmHg 52%
    17:00 +2°C° 0 mm 0 mps 628 mmHg 59%
    18:00 +3°C° 0 mm 1 mps 628 mmHg 61%
    19:00 +3°C° 0 mm 1 mps 628 mmHg 62%
    20:00 +3°C° 0 mm 1 mps 629 mmHg 63%
    21:00 +3°C° 0 mm 1 mps 629 mmHg 65%
    22:00 +2°C° 0 mm 1 mps 629 mmHg 67%
    23:00 +1°C° 0 mm 2 mps 629 mmHg 69%

    16 December, Saturday

    Time Temperature Precipitation Wind Pressure Humidity
    00:00 +1°C° 0 mm 2 mps 629 mmHg 72%
    01:00 +1°C° 0 mm 2 mps 629 mmHg 74%
    02:00 +1°C° 0 mm 2 mps 629 mmHg 77%
    03:00 +1°C° 0 mm 2 mps 629 mmHg 77%
    04:00 +1°C° 0 mm 2 mps 629 mmHg 77%
    05:00 +1°C° 0 mm 2 mps 629 mmHg 77%
    06:00 +1°C° 0 mm 2 mps 629 mmHg 74%
    07:00 +2°C° 0 mm 2 mps 630 mmHg 70%
    08:00 +3°C° 0 mm 2 mps 631 mmHg 67%
    09:00 +5°C° 0 mm 2 mps 631 mmHg 59%
    10:00 +7°C° 0 mm 2 mps 632 mmHg 51%
    11:00 +8°C° 0 mm 2 mps 632 mmHg 43%
    12:00 +9°C° 0 mm 2 mps 632 mmHg 44%
    13:00 +9°C° 0 mm 2 mps 632 mmHg 44%
    14:00 +9°C° 0 mm 2 mps 632 mmHg 44%
    15:00 +7°C° 0 mm 2 mps 631 mmHg 54%
    16:00 +6°C° 0 mm 2 mps 630 mmHg 64%
    17:00 +4°C° 0 mm 2 mps 630 mmHg 74%
    18:00 +3°C° 0 mm 2 mps 630 mmHg 77%
    19:00 +3°C° 0 mm 2 mps 630 mmHg 80%
    20:00 +3°C° 0 mm 2 mps 630 mmHg 83%
    21:00 +1°C° 0 mm 3 mps 630 mmHg 84%
    22:00 +1°C° 0 mm 3 mps 630 mmHg 85%
    23:00 +1°C° 0 mm 3 mps 630 mmHg 85%

    17 December, Sunday

    Time Temperature Precipitation Wind Pressure Humidity
    00:00 +1°C° 0 mm 3 mps 630 mmHg 86%
    01:00 +1°C° 0 mm 3 mps 630 mmHg 86%
    02:00 +1°C° 0 mm 3 mps 630 mmHg 86%
    03:00 +1°C° 0 mm 3 mps 630 mmHg 87%
    04:00 +1°C° 0 mm 3 mps 630 mmHg 87%
    05:00 0°C° 0 mm 3 mps 630 mmHg 87%
    06:00 +1°C° 0 mm 3 mps 630 mmHg 86%
    07:00 +1°C° 0 mm 3 mps 631 mmHg 85%
    08:00 +2°C° 0 mm 3 mps 631 mmHg 84%
    09:00 +3°C° 0 mm 3 mps 631 mmHg 78%
    10:00 +4°C° 0 mm 3 mps 631 mmHg 72%
    11:00 +5°C° 0 mm 3 mps 631 mmHg 67%
    12:00 +7°C° 0 mm 3 mps 631 mmHg 65%
    13:00 +7°C° 0 mm 3 mps 630 mmHg 64%
    14:00 +7°C° 0 mm 3 mps 630 mmHg 63%
    15:00 +5°C° 0 mm 3 mps 630 mmHg 68%
    16:00 +4°C° 0 mm 3 mps 630 mmHg 72%
    17:00 +4°C° 0 mm 2 mps 630 mmHg 77%
    18:00 +4°C° 0 mm 2 mps 630 mmHg 78%
    19:00 +3°C° 0 mm 2 mps 630 mmHg 79%
    20:00 +3°C° 0 mm 2 mps 631 mmHg 79%
    21:00 +3°C° 0 mm 2 mps 631 mmHg 79%
    22:00 +3°C° 0 mm 2 mps 631 mmHg 79%
    23:00 +3°C° 0 mm 2 mps 631 mmHg 79%
    Show more